Date String (YYYY-MM-DD hh:mm:ss) UTC,Instrument flags,Ambient pressure (hPa),Sample flow (lpm),Bypass flow (lpm),Sample temperature (°C),Ambient temperature (°C),ASC tube jacket temperature (°C),LED temperature (°C),Box temperature (°C),Sample RH (%),Span deviation,Mass concentration (μg/m³),Mass concentration (μg/m³),Mass concentration (μg/m³)
DateTimeUTC,F1_M11,P_M11,Q1_M11,Q2_M11,T1_M11,T2_M11,T3_M11,T4_M11,T5_M11,U1_M11,ZSPAN_M11,X2_M11,X0_M11,X1_M11
2022-03-02 19:00:00,,0829.7,5.01,0.00,30.1,29.4,00.0,39.0,31.9,09.9,0000.0,0003.67,0005.41,0003.41
2022-03-02 19:01:00,,0829.7,5.00,0.00,30.1,29.4,00.0,39.0,31.9,10.0,0000.0,0003.70,0005.54,0003.45
2022-03-02 19:02:00,,0829.6,5.00,0.00,30.2,29.4,00.0,39.0,31.9,10.2,0000.0,0003.78,0006.69,0003.53
2022-03-02 19:03:00,,0829.6,4.99,0.00,30.2,29.5,00.0,39.1,32.0,10.3,0000.0,0003.87,0007.28,0003.61
2022-03-02 19:04:00,,0829.6,5.00,0.00,30.2,29.5,00.0,39.1,32.0,10.2,0000.0,0003.95,0007.52,0003.69
2022-03-02 19:05:00,,0829.6,5.01,0.00,30.2,29.5,00.0,39.1,32.0,10.1,0000.0,0004.01,0007.62,0003.76
2022-03-02 19:06:00,,0829.6,4.99,0.00,30.2,29.5,00.0,39.1,32.0,10.1,0001.2,0004.06,0007.64,0003.81
2022-03-02 19:07:00,,0829.6,4.99,0.00,30.2,29.5,00.0,39.1,32.0,09.9,0000.3,0004.14,0007.77,0003.89
2022-03-02 19:08:00,,0829.6,5.02,0.00,30.3,29.5,00.0,39.1,32.0,10.1,-000.4,0004.20,0007.93,0003.97
2022-03-02 19:09:00,,0829.6,4.99,0.00,30.3,29.6,00.0,39.2,32.0,10.1,-000.0,0004.29,0008.36,0004.05
2022-03-02 19:10:00,,0829.6,5.00,0.00,30.3,29.6,00.0,39.2,32.0,10.2,0001.2,0004.42,0008.58,0004.13
2022-03-02 19:11:00,,0829.6,5.01,0.00,30.3,29.6,00.0,39.2,32.0,10.1,0001.5,0004.54,0008.81,0004.22
2022-03-02 19:12:00,,0829.5,4.99,0.00,30.3,29.6,00.0,39.2,32.1,10.3,0001.5,0004.68,0009.03,0004.32
2022-03-02 19:13:00,,0829.5,5.02,0.00,30.3,29.6,00.0,39.2,32.1,10.2,-000.6,0004.73,0008.57,0004.36
2022-03-02 19:14:00,,0829.5,4.99,0.00,30.3,29.6,00.0,39.2,32.1,10.1,-000.4,0004.79,0008.40,0004.41
2022-03-02 19:15:00,,0829.5,4.99,0.00,30.4,29.7,00.0,39.2,32.1,10.0,-000.5,0004.83,0008.40,0004.44
2022-03-02 19:16:00,,0829.5,5.00,0.00,30.4,29.7,00.0,39.2,32.1,10.0,-001.5,0004.88,0009.30,0004.49
2022-03-02 19:17:00,,0829.5,5.02,0.00,30.4,29.7,00.0,39.3,32.2,10.3,-001.4,0004.94,0009.81,0004.55
2022-03-02 19:18:00,,0829.5,4.99,0.00,30.4,29.7,00.0,39.3,32.2,10.3,-000.7,0005.00,0009.95,0004.62
2022-03-02 19:19:00,,0829.5,5.02,0.00,30.4,29.8,00.0,39.3,32.2,10.4,0000.1,0005.04,0010.00,0004.68
2022-03-02 19:20:00,,0829.6,4.99,0.00,30.5,29.8,00.0,39.3,32.2,10.2,0001.6,0005.09,0010.40,0004.71
2022-03-02 19:21:00,,0829.5,5.01,0.00,30.5,29.8,00.0,39.3,32.2,10.0,0001.7,0005.08,0010.71,0004.74
2022-03-02 19:22:00,,0829.5,4.98,0.00,30.5,29.8,00.0,39.3,32.2,10.2,0001.7,0005.13,0010.68,0004.79
2022-03-02 19:23:00,,0829.4,5.01,0.00,30.5,29.8,00.0,39.4,32.2,10.2,0003.0,0005.16,0010.69,0004.85
2022-03-02 19:24:00,,0829.4,4.99,0.00,30.5,29.8,00.0,39.4,32.2,10.3,0005.0,0005.31,0010.94,0004.96
2022-03-02 19:25:00,,0829.4,5.02,0.00,30.5,29.8,00.0,39.4,32.3,10.2,0004.3,0005.43,0011.18,0005.09
2022-03-02 19:26:00,,0829.3,5.00,0.00,30.5,29.8,00.0,39.4,32.2,10.2,0004.7,0005.55,0011.42,0005.22
2022-03-02 19:27:00,,0829.3,4.99,0.00,30.5,29.8,00.0,39.4,32.3,10.2,0005.5,0005.71,0010.69,0005.35
2022-03-02 19:28:00,,0829.3,5.01,0.00,30.5,29.8,00.0,39.5,32.3,10.4,0005.3,0005.88,0010.64,0005.48
2022-03-02 19:29:00,,0829.3,4.99,0.00,30.6,29.9,00.0,39.5,32.3,10.4,0005.1,0006.01,0010.73,0005.58
2022-03-02 19:30:00,,0829.3,5.01,0.00,30.6,29.9,00.0,39.5,32.3,10.2,0004.6,0006.07,0011.03,0005.63
2022-03-02 19:31:00,,0829.2,5.00,0.00,30.6,29.9,00.0,39.5,32.3,10.1,0003.6,0006.11,0010.58,0005.68
2022-03-02 19:32:00,,0829.2,4.99,0.00,30.6,29.9,00.0,39.5,32.3,10.1,0002.5,0006.16,0010.42,0005.74
2022-03-02 19:33:00,,0829.2,5.01,0.00,30.6,29.9,00.0,39.5,32.3,10.1,0002.2,0006.22,0010.57,0005.77
2022-03-02 19:34:00,,0829.2,4.98,0.00,30.6,29.9,00.0,39.5,32.4,10.1,0002.3,0006.27,0011.23,0005.79
2022-03-02 19:35:00,,0829.2,5.01,0.00,30.6,29.9,00.0,39.5,32.4,09.8,0001.9,0006.23,0011.83,0005.77
2022-03-02 19:36:00,,0829.2,4.99,0.00,30.7,30.0,00.0,39.6,32.4,09.9,0001.3,0006.18,0011.71,0005.72
2022-03-02 19:37:00,,0829.2,5.00,0.00,30.7,30.0,00.0,39.6,32.4,09.9,0001.1,0006.18,0011.88,0005.70
2022-03-02 19:38:00,,0829.2,5.01,0.00,30.7,30.0,00.0,39.6,32.4,09.9,-000.4,0006.19,0012.35,0005.71
2022-03-02 19:39:00,,0829.1,5.01,0.00,30.7,30.0,00.0,39.6,32.4,09.7,-001.5,0006.13,0012.59,0005.67
2022-03-02 19:40:00,,0829.1,5.00,0.00,30.7,30.0,00.0,39.6,32.5,09.8,-001.6,0006.03,0012.75,0005.61
2022-03-02 19:41:00,,0829.1,4.99,0.00,30.8,30.1,00.0,39.6,32.5,09.9,-001.9,0006.01,0012.48,0005.58
2022-03-02 19:42:00,,0829.0,5.02,0.00,30.8,30.1,00.0,39.6,32.5,10.1,-002.0,0006.05,0014.38,0005.59
2022-03-02 19:43:00,,0829.1,4.98,0.00,30.8,30.1,00.0,39.7,32.5,10.1,-001.2,0006.14,0015.23,0005.63
2022-03-02 19:44:00,,0829.1,5.01,0.00,30.8,30.1,00.0,39.7,32.5,10.0,-000.8,0006.16,0015.24,0005.66
2022-03-02 19:45:00,,0829.1,5.00,0.00,30.8,30.1,00.0,39.7,32.5,10.0,-000.7,0006.17,0015.26,0005.70
2022-03-02 19:46:00,,0829.1,5.00,0.00,30.8,30.1,00.0,39.7,32.6,09.9,-000.4,0006.21,0014.88,0005.74
2022-03-02 19:47:00,,0829.1,5.00,0.00,30.8,30.1,00.0,39.7,32.6,09.7,-000.3,0006.25,0015.13,0005.75
2022-03-02 19:48:00,,0829.1,5.00,0.00,30.8,30.1,00.0,39.7,32.6,09.6,-001.4,0006.23,0014.91,0005.73
2022-03-02 19:49:00,,0829.0,4.99,0.00,30.9,30.2,00.0,39.8,32.6,09.9,-001.8,0006.21,0014.47,0005.69
2022-03-02 19:50:00,,0829.0,5.01,0.00,30.9,30.2,00.0,39.8,32.6,09.9,-000.9,0006.25,0014.16,0005.70
2022-03-02 19:51:00,,0829.0,4.99,0.00,30.9,30.2,00.0,39.8,32.6,09.9,-001.0,0006.33,0013.93,0005.75
2022-03-02 19:52:00,,0828.9,5.00,0.00,30.9,30.2,00.0,39.8,32.6,10.0,-000.4,0006.44,0015.24,0005.83
2022-03-02 19:53:00,,0829.0,4.99,0.00,30.9,30.2,00.0,39.8,32.6,09.9,-000.3,0006.53,0013.77,0005.90
2022-03-02 19:54:00,,0828.9,5.00,0.00,30.9,30.3,00.0,39.8,32.6,10.0,-001.0,0006.55,0012.47,0005.95
2022-03-02 19:55:00,,0828.9,5.00,0.00,30.9,30.2,00.0,39.8,32.6,10.0,-000.7,0006.65,0012.75,0006.03
2022-03-02 19:56:00,,0829.0,5.01,0.00,30.9,28.9,00.0,39.8,32.4,10.0,-001.4,0006.75,0012.67,0006.11
2022-03-02 19:57:00,,0829.3,4.99,0.00,30.8,27.1,00.0,39.8,32.0,10.2,-001.0,0006.83,0012.41,0006.18
2022-03-02 19:58:00,,0829.2,5.00,0.00,30.7,27.0,00.0,39.8,31.9,10.4,-001.5,0006.94,0012.17,0006.28
2022-03-02 19:59:00,,0829.1,5.00,0.00,30.6,27.3,00.0,39.7,31.9,10.5,-001.7,0007.09,0012.26,0006.43
